Location: Caltech
(34.1382°N, 118.1253°W)
Time: 23:32:50
(UTC-07:00)

SL-08 R/B - Visible Passes

Search period start: 24 April 2015 00:00
Search period end: 04 May 2015 00:00
Orbit: 674 x 742 km, 98.1° (Epoch: 23 April)

Date Brightness Start Highest point End Pass type
(mag) Time Alt. Az. Time Alt. Az. Time Alt. Az.
24 Apr 5.6 02:39:37 20° NNE 02:39:37 20° NNE 02:41:13 10° N visible
25 Apr 5.3 03:24:35 19° NNW 03:24:35 19° NNW 03:25:56 10° NNW visible
26 Apr 5.6 02:30:34 21° NNE 02:30:34 21° NNE 02:32:20 10° N visible
27 Apr 5.1 03:15:32 23° NNW 03:15:32 23° NNW 03:17:15 10° NNW visible
28 Apr 5.7 02:21:30 20° NNE 02:21:30 20° NNE 02:23:23 10° NNE visible
28 Apr 5.5 04:00:30 12° NW 04:00:30 12° NW 04:01:00 10° NW visible
29 Apr 5.0 03:06:29 26° N 03:06:29 26° N 03:08:31 10° N visible
30 Apr 5.7 02:12:27 18° NE 02:12:27 18° NE 02:14:23 10° NNE visible
30 Apr 5.3 03:51:27 16° NW 03:51:27 16° NW 03:52:32 10° NW visible
01 May 4.9 02:57:25 29° N 02:57:25 29° N 02:59:45 10° N visible
02 May 5.8 02:03:23 16° NE 02:03:23 16° NE 02:05:16 10° NNE visible
02 May 5.1 03:42:23 20° NW 03:42:23 20° NW 03:44:00 10° NNW visible
03 May 4.9 02:48:21 31° NNE 02:48:21 31° NNE 02:50:56 10° N visible
